GW0980 Weather Reports


Display with metric or nautical units.
time (UTC)temp
F
wind
direction
speed
MPH
gust
MPH
rain 1hr
in
rain 24hr
in
rain mn
in
humidity
%
barometer
mb
20260507003039 58 269 10.0 17.0 0.00 0.00 0.00 73 1021.3
20260507001552 59 267 9.0 21.0 0.00 0.00 0.00 72 1021.3
20260507000042 59 255 10.0 16.0 0.00 0.00 0.00 71 1021.2
20260506234539 60 270 8.0 14.0 0.00 0.00 0.00 70 1021.3
20260506233100 60 264 7.0 14.0 0.00 0.00 0.00 71 1021.3
20260506231544 60 263 9.0 20.0 0.00 0.00 0.00 71 1021.3
20260506230048 60 257 9.0 16.0 0.00 0.00 0.00 70 1021.3
20260506224543 61 281 10.0 16.0 0.00 0.00 0.00 70 1021.3
20260506223038 61 278 9.0 26.0 0.00 0.00 0.00 69 1021.4
20260506221545 61 262 8.0 12.0 0.00 0.00 0.00 68 1021.3
20260506220042 61 269 10.0 19.0 0.00 0.00 0.00 69 1021.1
20260506214552 61 271 10.0 17.0 0.00 0.00 0.00 69 1021.0
20260506213044 61 294 10.0 16.0 0.00 0.00 0.00 68 1021.0
20260506211542 62 313 6.0 15.0 0.00 0.00 0.00 68 1021.1
20260506210041 62 212 6.0 15.0 0.00 0.00 0.00 68 1021.1
20260506204539 61 281 8.0 14.0 0.00 0.00 0.00 69 1021.1
20260506203037 61 273 8.0 16.0 0.00 0.00 0.00 69 1021.1
20260506201540 61 273 7.0 10.0 0.00 0.00 0.00 70 1021.1
20260506200047 60 284 8.0 14.0 0.00 0.00 0.00 72 1021.4
20260506194546 60 276 7.0 10.0 0.00 0.00 0.00 72 1021.4
20260506193043 59 277 8.0 12.0 0.00 0.00 0.00 73 1021.4
20260506191542 59 352 8.0 13.0 0.00 0.00 0.00 73 1021.5
20260506190046 60 67 6.0 11.0 0.00 0.00 0.00 74 1021.4
20260506184544 60 275 6.0 13.0 0.00 0.00 0.00 73 1021.3
20260506183039 59 280 4.0 7.0 0.00 0.00 0.00 75 1021.4
20260506181540 59 268 2.0 8.0 0.00 0.00 0.00 75 1021.3
20260506180044 58 291 4.0 8.0 0.00 0.00 0.00 76 1021.5
20260506174537 57 260 4.0 9.0 0.00 0.00 0.00 78 1021.4
20260506173044 57 299 5.0 10.0 0.00 0.00 0.00 78 1021.4
20260506171551 57 264 3.0 4.0 0.00 0.00 0.00 78 1021.2
20260506170044 56 0 1.0 3.0 0.00 0.00 0.00 79 1021.2
20260506164553 56 311 4.0 7.0 0.00 0.00 0.00 79 1021.3
20260506163043 56 272 2.0 5.0 0.00 0.00 0.00 80 1021.4
20260506161546 55 282 2.0 5.0 0.00 0.00 0.00 81 1021.2
20260506160046 54 261 2.0 6.0 0.00 0.00 0.00 81 1021.1
20260506154551 54 261 1.0 4.0 0.00 0.00 0.00 82 1021.1
20260506153042 53 0 2.0 4.0 0.00 0.00 0.00 83 1020.9
20260506151542 53 250 0.0 4.0 0.00 0.00 0.00 83 1020.7
20260506150049 52 304 3.0 11.0 0.00 0.00 0.00 84 1020.9
20260506144546 52 285 5.0 10.0 0.00 0.00 0.00 84 1021.0
20260506143038 52 262 5.0 16.0 0.00 0.00 0.00 85 1020.9
20260506141554 52 263 5.0 11.0 0.00 0.00 0.00 85 1020.8
20260506140042 52 281 5.0 13.0 0.00 0.00 0.00 86 1020.4
20260506134546 52 277 4.0 12.0 0.00 0.00 0.00 87 1020.3
20260506133046 51 257 3.0 7.0 0.00 0.00 0.00 87 1020.2
20260506131539 51 300 3.0 9.0 0.00 0.00 0.00 87 1020.2
20260506130037 51 294 3.0 9.0 0.00 0.00 0.00 87 1020.0
20260506124550 52 275 3.0 7.0 0.00 0.00 0.00 86 1019.9
20260506123046 52 276 4.0 11.0 0.00 0.00 0.00 85 1019.7
20260506121551 52 275 4.0 6.0 0.00 0.00 0.00 85 1019.7
20260506120107 53 279 4.0 8.0 0.00 0.00 0.00 85 1020.0
20260506114544 53 275 5.0 9.0 0.00 0.00 0.00 85 1019.8
20260506113039 53 276 6.0 12.0 0.00 0.00 0.00 85 1019.7
20260506111540 53 272 3.0 10.0 0.00 0.00 0.00 86 1019.6
20260506110041 53 314 5.0 14.0 0.00 0.00 0.00 86 1019.3
20260506104541 52 289 6.0 10.0 0.00 0.00 0.00 86 1019.2
20260506103037 52 284 5.0 12.0 0.00 0.00 0.00 86 1019.1
20260506101544 52 263 6.0 12.0 0.00 0.00 0.00 87 1019.0
20260506100042 52 265 5.0 12.0 0.00 0.00 0.00 87 1018.8
20260506094546 52 268 5.0 9.0 0.00 0.00 0.00 88 1018.8
20260506093047 51 286 5.0 11.0 0.00 0.00 0.00 89 1018.6
20260506091542 51 283 5.0 8.0 0.00 0.00 0.00 89 1018.5
20260506090241 51 282 3.0 7.0 0.00 0.00 0.00 90 1018.7
20260506084542 51 307 2.0 5.0 0.00 0.00 0.00 90 1018.6
20260506083047 51 305 2.0 7.0 0.00 0.00 0.00 90 1018.6
20260506081538 51 292 1.0 5.0 0.00 0.00 0.00 90 1018.4
20260506073041 52 280 2.0 5.0 0.00 0.00 0.00 88 1018.1
20260506071551 52 299 1.0 4.0 0.00 0.00 0.00 88 1017.9
20260506070104 52 292 2.0 5.0 0.00 0.00 0.00 88 1017.9
20260506061541 53 276 2.0 7.0 0.00 0.00 0.00 87 1017.8
20260506044553 53 281 6.0 12.0 0.00 0.00 0.00 85 1017.4
20260506043037 54 276 5.0 11.0 0.00 0.00 0.00 84 1017.2
20260506041549 54 294 5.0 13.0 0.00 0.00 0.00 84 1017.1
20260506040046 54 301 6.0 13.0 0.00 0.00 0.00 83 1017.0
20260506034539 55 283 5.0 11.0 0.00 0.00 0.00 82 1016.7
20260506033042 55 269 4.0 12.0 0.00 0.00 0.00 81 1016.4
20260506031554 56 281 4.0 10.0 0.00 0.00 0.00 79 1016.2
20260506030058 58 269 4.0 10.0 0.00 0.00 0.00 77 1016.1
20260506024544 59 272 5.0 13.0 0.00 0.00 0.00 75 1015.8
20260506023042 60 257 6.0 13.0 0.00 0.00 0.00 73 1015.7
20260506021538 61 264 5.0 11.0 0.00 0.00 0.00 72 1015.6
20260506020038 62 269 4.0 12.0 0.00 0.00 0.00 70 1015.6
20260506014545 63 267 4.0 8.0 0.00 0.00 0.00 68 1015.5
20260506013050 63 294 6.0 11.0 0.00 0.00 0.00 67 1015.5
20260506011545 64 271 5.0 8.0 0.00 0.00 0.00 67 1015.5
20260506010043 66 285 4.0 11.0 0.00 0.00 0.00 64 1015.4
20260506004621 66 278 5.0 7.0 0.00 0.00 0.00 63 1015.4